Weather History for Anaktuvuk Pass, AK

Change the Weather History Date:

Friday, August 23, 2013

  Actual Average Record
Temperature  
Mean Temperature 34 °F -  
Max Temperature 39 °F 48 °F 66 °F (2012)
Min Temperature 28 °F 33 °F 17 °F (1996)
Degree Days  
Heating Degree Days 32    
Moisture  
Dew Point 27 °F    
Average Humidity 74    
Maximum Humidity 81    
Minimum Humidity 65    
Precipitation  
Precipitation 0.00 in - - ()
Sea Level Pressure  
Sea Level Pressure 29.73 in    
Wind  
Wind Speed 10 mph (NE)    
Max Wind Speed 16 mph    
Max Gust Speed 22 mph    
Visibility 10 miles    
Events      
Averages and records for this station are not official NWS values.
T = Trace of Precipitation, MM = Missing Value Source: NWS Daily Summary

Daily Weather History Graph

Daily Weather History Graph

Search for Another Location

Airport:

Trip Planner

Search our weather history database for the weather conditions in past years. The results will help you decide how hot, cold, wet, or windy it might be!

Date:

Astronomy

Aug. 23, 2013 Rise Set
Actual Time 5:59 AM AKDT 10:16 PM AKDT
Civil Twilight 4:43 AM AKDT 11:30 PM AKDT
Nautical Twilight 2:42 AM AKDT 1:36 AM AKDT
Astronomical Twilight Sun does not rise Sun does not rise
Moon 9:28 PM AKDT 11:08 AM AKDT
Length of Visible Light 18h 47m
Length of Day
16h 16m
Waning Gibbous, 90% of the Moon is Illuminated
Aug 23
Waning Gibbous
Aug 28
Last Quarter
Sep 5
New
Sep 12
First Quarter
Sep 19
Full

Hourly Weather History & Observations

Time (AKDT) Temp. Windchill Dew Point Humidity Pressure Visibility Wind Dir Wind Speed Gust Speed Precip Events Conditions
12:16 AM 33.8 °F 26.4 °F 24.8 °F 70% 29.62 in 10.0 mi NE 9.2 mph - N/A   Clear
12:36 AM 33.8 °F 27.0 °F 24.8 °F 70% 29.62 in 10.0 mi NE 8.1 mph - N/A   Clear
12:56 AM 32.0 °F 25.6 °F 24.8 °F 75% 29.63 in 10.0 mi NNE 6.9 mph - N/A   Clear
1:16 AM 32.0 °F 25.6 °F 24.8 °F 75% 29.63 in 10.0 mi NNE 6.9 mph - N/A   Clear
1:36 AM 30.2 °F 24.3 °F 23.0 °F 75% 29.63 in 10.0 mi North 5.8 mph - N/A   Clear
1:56 AM 30.2 °F 23.4 °F 24.8 °F 80% 29.63 in 10.0 mi NNE 6.9 mph - N/A   Clear
2:16 AM 30.2 °F 22.6 °F 23.0 °F 75% 29.63 in 10.0 mi North 8.1 mph - N/A   Clear
2:36 AM 30.2 °F 22.6 °F 24.8 °F 80% 29.64 in 10.0 mi North 8.1 mph - N/A   Clear
2:56 AM 30.2 °F 23.4 °F 24.8 °F 80% 29.64 in 10.0 mi North 6.9 mph - N/A   Clear
3:16 AM 30.2 °F 22.6 °F 24.8 °F 80% 29.64 in 10.0 mi North 8.1 mph - N/A   Clear
3:36 AM 30.2 °F 23.4 °F 24.8 °F 80% 29.64 in 10.0 mi North 6.9 mph - N/A   Clear
3:56 AM 30.2 °F 22.6 °F 24.8 °F 80% 29.64 in 10.0 mi North 8.1 mph - N/A   Clear
4:16 AM 30.2 °F 22.6 °F 23.0 °F 75% 29.65 in 10.0 mi NNE 8.1 mph - N/A   Clear
4:36 AM 30.2 °F 21.9 °F 24.8 °F 80% 29.66 in 10.0 mi NE 9.2 mph - N/A   Clear
4:56 AM 30.2 °F 23.4 °F 24.8 °F 80% 29.66 in 10.0 mi North 6.9 mph - N/A   Partly Cloudy
5:16 AM 28.4 °F 20.4 °F 23.0 °F 80% 29.66 in 10.0 mi North 8.1 mph - N/A   Clear
5:36 AM 30.2 °F 21.9 °F 24.8 °F 80% 29.66 in 10.0 mi NE 9.2 mph - N/A   Clear
5:56 AM 32.0 °F 23.0 °F 24.8 °F 75% 29.67 in 10.0 mi ENE 11.5 mph - N/A   Clear
6:16 AM 32.0 °F 22.1 °F 24.8 °F 75% 29.67 in 10.0 mi East 13.8 mph 20.7 mph N/A   Partly Cloudy
6:36 AM 32.0 °F 24.2 °F 24.8 °F 75% 29.68 in 10.0 mi NE 9.2 mph - N/A   Mostly Cloudy
6:56 AM 32.0 °F 24.8 °F 24.8 °F 75% 29.68 in 10.0 mi NE 8.1 mph - N/A   Overcast
7:16 AM 30.2 °F 23.4 °F 24.8 °F 80% 29.69 in 10.0 mi NNE 6.9 mph - N/A   Mostly Cloudy
7:36 AM 30.2 °F 24.3 °F 24.8 °F 80% 29.69 in 10.0 mi NNE 5.8 mph - N/A   Mostly Cloudy
7:56 AM 30.2 °F 25.4 °F 24.8 °F 80% 29.70 in 10.0 mi NNE 4.6 mph - N/A   Overcast
8:16 AM 32.0 °F 24.8 °F 26.6 °F 80% 29.70 in 10.0 mi NE 8.1 mph - N/A   Mostly Cloudy
8:36 AM 32.0 °F 23.6 °F 26.6 °F 80% 29.70 in 10.0 mi ENE 10.4 mph - N/A   Scattered Clouds
8:56 AM 33.8 °F 25.3 °F 26.6 °F 75% 29.70 in 10.0 mi ENE 11.5 mph - N/A   Mostly Cloudy
9:16 AM 33.8 °F 26.4 °F 26.6 °F 75% 29.70 in 10.0 mi ENE 9.2 mph - N/A   Overcast
9:36 AM 35.6 °F 28.0 °F 28.4 °F 75% 29.70 in 10.0 mi NE 10.4 mph - N/A   Overcast
9:56 AM 35.6 °F 28.0 °F 26.6 °F 70% 29.71 in 10.0 mi NNE 10.4 mph - N/A   Overcast
10:16 AM 35.6 °F 27.1 °F 28.4 °F 75% 29.71 in 10.0 mi NNE 12.7 mph 16.1 mph N/A   Overcast
10:36 AM 35.6 °F 27.1 °F 28.4 °F 75% 29.71 in 10.0 mi NE 12.7 mph 17.3 mph N/A   Overcast
10:56 AM 37.4 °F 28.9 °F 28.4 °F 70% 29.71 in 10.0 mi NE 13.8 mph 17.3 mph N/A   Overcast
11:16 AM 37.4 °F 28.9 °F 28.4 °F 70% 29.72 in 10.0 mi NE 13.8 mph - N/A   Overcast
11:36 AM 37.4 °F 29.3 °F 28.4 °F 70% 29.72 in 10.0 mi NE 12.7 mph 18.4 mph N/A   Overcast
11:56 AM 37.4 °F 28.5 °F 28.4 °F 70% 29.72 in 10.0 mi NE 15.0 mph - N/A   Overcast
12:16 PM 37.4 °F 28.5 °F 28.4 °F 70% 29.73 in 10.0 mi NE 15.0 mph - N/A   Overcast
12:36 PM 37.4 °F 28.5 °F 28.4 °F 70% 29.73 in 10.0 mi NE 15.0 mph 19.6 mph N/A   Overcast
12:56 PM 37.4 °F 28.5 °F 28.4 °F 70% 29.73 in 10.0 mi NE 15.0 mph - N/A   Overcast
1:16 PM 37.4 °F 28.5 °F 28.4 °F 70% 29.73 in 10.0 mi NE 15.0 mph 20.7 mph N/A   Overcast
1:36 PM 37.4 °F 28.9 °F 28.4 °F 70% 29.74 in 10.0 mi NE 13.8 mph 21.9 mph N/A   Overcast
1:56 PM 39.2 °F 31.2 °F 28.4 °F 65% 29.74 in 10.0 mi NE 13.8 mph - N/A   Overcast
2:16 PM 39.2 °F 31.2 °F 30.2 °F 70% 29.74 in 10.0 mi NE 13.8 mph - N/A   Overcast
2:36 PM 39.2 °F 30.8 °F 30.2 °F 70% 29.75 in 10.0 mi NE 15.0 mph 20.7 mph N/A   Overcast
2:56 PM 39.2 °F 30.8 °F 28.4 °F 65% 29.75 in 10.0 mi NE 15.0 mph - N/A   Overcast
3:16 PM 39.2 °F 30.8 °F 28.4 °F 65% 29.75 in 10.0 mi NNE 15.0 mph 19.6 mph N/A   Overcast
3:36 PM 39.2 °F 30.8 °F 28.4 °F 65% 29.76 in 10.0 mi NE 15.0 mph 18.4 mph N/A   Overcast
3:56 PM 39.2 °F 30.8 °F 30.2 °F 70% 29.76 in 10.0 mi NE 15.0 mph 19.6 mph N/A   Overcast
4:16 PM 39.2 °F 31.6 °F 28.4 °F 65% 29.76 in 10.0 mi NE 12.7 mph 18.4 mph N/A   Overcast
4:36 PM 39.2 °F 30.8 °F 28.4 °F 65% 29.76 in 10.0 mi NE 15.0 mph 18.4 mph N/A   Overcast
4:56 PM 39.2 °F 31.2 °F 28.4 °F 65% 29.77 in 10.0 mi NE 13.8 mph 20.7 mph N/A   Overcast
5:16 PM 37.4 °F 28.5 °F 28.4 °F 70% 29.77 in 10.0 mi NE 15.0 mph - N/A   Overcast
5:36 PM 37.4 °F 28.2 °F 28.4 °F 70% 29.78 in 10.0 mi NE 16.1 mph 19.6 mph N/A   Overcast
5:56 PM 37.4 °F 29.3 °F 28.4 °F 70% 29.78 in 10.0 mi NE 12.7 mph 19.6 mph N/A   Overcast
6:16 PM 37.4 °F 28.9 °F 28.4 °F 70% 29.78 in 10.0 mi NE 13.8 mph 20.7 mph N/A   Overcast
6:36 PM 37.4 °F 28.9 °F 28.4 °F 70% 29.79 in 10.0 mi NE 13.8 mph 21.9 mph N/A   Overcast
6:56 PM 37.4 °F 28.9 °F 28.4 °F 70% 29.79 in 10.0 mi NNE 13.8 mph 17.3 mph N/A   Overcast
7:16 PM 37.4 °F 28.2 °F 28.4 °F 70% 29.79 in 10.0 mi NE 16.1 mph - N/A   Overcast
7:36 PM 35.6 °F 26.6 °F 28.4 °F 75% 29.80 in 10.0 mi NE 13.8 mph 18.4 mph N/A   Overcast
7:56 PM 35.6 °F 26.6 °F 28.4 °F 75% 29.80 in 10.0 mi NNE 13.8 mph 19.6 mph N/A   Overcast
8:16 PM 35.6 °F 27.5 °F 28.4 °F 75% 29.80 in 10.0 mi NNE 11.5 mph - N/A   Mostly Cloudy
8:36 PM 35.6 °F 27.1 °F 28.4 °F 75% 29.80 in 10.0 mi NNE 12.7 mph - N/A   Overcast
8:56 PM 35.6 °F 27.1 °F 28.4 °F 75% 29.80 in 10.0 mi NE 12.7 mph 17.3 mph N/A   Overcast
9:16 PM 35.6 °F 27.5 °F 26.6 °F 70% 29.81 in 10.0 mi NE 11.5 mph - N/A   Overcast
9:36 PM 35.6 °F 28.0 °F 28.4 °F 75% 29.81 in 10.0 mi NE 10.4 mph - N/A   Overcast
9:56 PM 35.6 °F 28.0 °F 28.4 °F 75% 29.81 in 10.0 mi NNE 10.4 mph - N/A   Overcast
10:16 PM 35.6 °F 27.5 °F 28.4 °F 75% 29.82 in 10.0 mi NE 11.5 mph - N/A   Overcast
10:36 PM 35.6 °F 27.5 °F 28.4 °F 75% 29.82 in 10.0 mi NNE 11.5 mph 19.6 mph N/A   Overcast
10:56 PM 35.6 °F 28.6 °F 28.4 °F 75% 29.83 in 10.0 mi NE 9.2 mph 16.1 mph N/A   Overcast
11:16 PM 33.8 °F 25.3 °F 28.4 °F 81% 29.83 in 10.0 mi NNE 11.5 mph - N/A   Overcast
11:36 PM 33.8 °F 25.3 °F 28.4 °F 81% 29.84 in 10.0 mi NE 11.5 mph - N/A   Overcast
11:56 PM 33.8 °F 25.8 °F 28.4 °F 81% 29.84 in 10.0 mi NE 10.4 mph - N/A   Overcast